SCP
11 11 10 8 6 5 4 3 3 4 4 4 3 2 2 1 1 1 1 1 1 1 1 1 2 2 2 2 2 2 2 2 1 1 1 1 0 1 1 1 1 1 1
10 10 9 8 7 6 4 4 4 4 4 4 3 2 2 2 1 1 1 1 1 1 1 1 1 1 1 2 2 2 2 2 1 1 1 1 0 1 1 1 1 1 1
9 8 7 7 6 6 5 4 4 4 4 4 4 3 2 2 1 1 1 1 1 1 1 1 1 1 2 2 2 2 2 1 1 1 1 1 1 0 0 0 0 0 0
8 8 7 6 5 5 5 4 4 4 4 4 4 3 2 2 2 1 1 1 2 2 1 1 1 1 2 3 3 2 1 1 1 1 1 1 1 1 1 0 0 0 0
8 8 6 5 4 4 4 4 4 4 4 4 4 3 3 2 2 2 2 2 2 3 2 2 2 2 2 3 3 2 2 2 2 1 1 1 1 1 1 1 0 0 0
8 7 5 4 4 4 5 4 4 4 4 3 4 4 4 3 3 3 3 3 3 3 3 3 2 2 1 2 3 2 2 2 1 1 1 1 1 1 1 1 0 0 0
7 6 4 3 4 4 5 5 4 4 3 3 4 5 5 4 4 3 3 3 3 3 3 3 2 2 2 2 2 2 2 1 1 1 1 1 1 1 1 1 1 0 0
6 5 3 3 3 4 6 6 5 4 3 3 4 5 6 5 5 4 4 3 3 3 2 2 2 2 2 2 2 2 1 1 1 1 1 1 1 1 1 1 1 1 1
5 4 4 3 3 4 5 6 6 4 3 3 4 5 6 6 6 5 4 4 3 3 2 2 2 2 2 2 2 1 1 1 1 1 1 1 1 1 1 1 1 1 1
4 4 4 4 4 4 5 6 6 5 4 4 4 4 5 6 6 6 5 5 4 3 3 3 2 2 2 2 2 1 1 1 2 2 2 1 1 1 1 1 2 2 1
4 4 4 5 4 3 4 5 6 6 5 4 4 4 5 5 5 5 5 5 4 4 3 3 3 2 2 2 2 2 1 2 2 2 2 2 1 1 1 1 1 2 2
4 4 4 4 4 4 4 5 6 7 7 6 5 4 4 4 4 4 4 4 3 3 3 3 3 3 2 2 2 2 2 2 2 2 2 2 2 2 1 1 1 1 1
3 3 3 4 4 5 5 6 8 9 9 8 6 5 4 3 3 3 3 3 2 2 2 3 3 3 3 3 3 3 3 3 3 3 3 3 2 2 2 1 1 1 1
3 3 3 4 5 5 6 7 9 11 12 11 8 6 5 4 3 3 3 2 2 2 2 2 3 3 3 4 4 4 4 4 4 4 4 3 3 3 3 2 2 1 1
2 2 3 5 6 5 5 6 9 13 15 14 10 7 5 4 3 3 3 3 2 2 2 3 3 3 4 4 4 4 4 4 4 4 4 3 3 3 3 2 2 1 1
2 3 4 6 6 5 4 5 8 15 19 19 14 8 5 4 4 3 3 3 3 3 3 3 4 4 4 4 3 3 3 3 3 3 3 3 3 2 2 2 2 1 1
3 3 5 6 6 5 4 5 8 15 21 23 18 10 5 4 4 3 3 4 4 4 4 4 5 5 3 2 2 2 2 2 2 2 2 2 2 2 2 2 2 1 1
4 4 6 6 6 5 5 5 8 14 21 24 19 12 7 6 5 4 3 4 4 5 5 6 6 6 4 2 1 1 1 1 1 2 2 2 2 2 2 2 2 2 1
4 5 5 5 5 6 6 6 8 12 17 19 17 13 11 9 6 4 3 3 4 6 7 9 10 9 6 2 0 0 1 1 1 1 1 1 1 1 1 1 1 2 2
4 4 4 5 6 7 7 6 6 8 10 12 14 15 13 11 7 5 3 3 4 5 8 11 13 13 9 3 0 0 0 1 1 1 1 1 1 1 0 0 1 1 1
4 4 5 6 7 7 6 5 4 4 5 9 13 14 13 10 7 4 3 2 3 4 7 11 14 14 10 4 0 0 0 1 1 1 0 0 0 0 0 0 0 0 1
4 5 6 6 6 5 4 3 2 2 3 7 11 13 12 10 7 5 3 2 2 3 5 9 13 13 8 3 0 0 0 0 0 0 0 0 0 0 0 0 0 0 0
3 3 4 4 3 3 2 1 1 1 3 7 10 11 10 9 7 5 3 3 2 3 5 8 10 9 5 2 1 0 0 0 0 0 0 0 0 0 0 0 0 0 0
2 2 2 2 1 1 1 1 1 1 3 6 8 9 9 8 7 5 4 4 3 3 4 7 8 6 3 2 1 0 0 0 0 0 0 0 0 0 0 0 0 0 0
2 2 1 1 0 1 1 2 2 2 4 5 6 6 7 7 6 6 5 4 4 4 4 5 6 4 3 2 1 0 0 0 0 0 0 0 0 0 0 0 0 0 0
2 1 1 1 0 1 1 2 2 3 4 4 4 5 5 5 5 5 5 5 4 3 3 4 4 3 2 2 1 0 0 0 0 0 0 0 0 0 0 0 0 0 0
Wind_Speed
6 7 8 8 7 6 5 5 4 3 3 2 2 1 1 1 0 0 1 1 1 1 1 1 1 1 1 1 1 0 1 1 1 1 2 2 2 1 1 2 3 4 5
6 6 7 7 7 6 6 5 4 4 3 2 2 2 2 1 1 0 0 1 1 1 2 2 1 1 0 0 0 0 0 1 0 1 1 2 3 2 1 1 2 3 3
10 9 8 7 7 6 6 6 5 4 3 3 2 2 2 1 1 1 1 0 1 1 1 2 1 1 1 1 1 1 1 1 1 1 2 1 2 2 2 1 1 1 2
8 8 7 7 7 7 6 6 5 4 3 3 3 3 2 1 1 1 0 0 0 1 1 1 1 1 1 1 1 0 1 1 1 1 0 2 2 1 2 3 2 2 2
9 9 9 9 7 7 6 6 6 5 4 4 4 3 2 1 1 0 0 0 1 1 1 1 1 1 0 0 0 0 0 0 1 1 1 0 0 1 2 2 3 2 2
9 8 8 7 6 6 5 6 6 5 5 5 4 4 4 2 1 1 1 0 0 1 1 1 1 1 0 0 0 0 1 1 0 0 0 1 1 1 1 2 2 2 2
9 8 7 8 8 7 6 6 6 5 5 5 4 4 4 4 3 2 2 1 0 0 1 0 0 0 0 0 0 0 1 1 1 0 0 0 1 1 2 2 2 2 2
7 8 8 8 8 7 6 6 6 5 5 5 4 4 4 3 2 2 2 2 1 1 1 1 0 0 0 1 1 1 1 1 1 1 1 0 1 0 1 2 1 1 2
8 8 8 7 7 7 7 7 6 5 5 5 4 3 3 3 3 2 2 1 1 1 0 0 1 0 1 1 1 1 1 1 1 1 1 1 1 1 0 0 2 2 1
7 7 7 7 7 7 6 6 6 5 4 4 4 4 3 2 2 2 1 1 0 0 1 1 1 1 1 1 1 1 1 1 1 1 2 2 1 1 1 0 0 1 2
8 7 6 6 6 6 6 6 5 5 4 4 3 3 2 2 2 1 1 1 1 1 1 1 1 1 1 1 2 1 1 1 1 1 1 2 2 2 2 1 1 0 1
7 7 6 6 6 5 5 5 5 5 4 4 4 3 3 3 2 2 1 1 1 1 2 2 1 1 1 1 1 0 0 0 0 1 1 2 2 2 2 1 1 1 1
6 6 6 6 6 5 5 5 5 5 4 4 4 3 3 3 2 2 2 2 2 1 2 2 2 1 1 1 1 2 1 1 1 1 1 1 1 2 2 1 1 1 1
6 6 6 5 5 5 5 5 4 4 5 4 4 3 3 3 3 3 2 3 3 2 2 2 2 2 2 2 2 1 1 1 1 2 2 1 1 1 1 1 1 1 1
5 6 6 5 5 4 4 4 3 3 4 4 3 3 3 3 3 3 3 2 2 3 2 2 1 2 2 2 2 2 2 2 1 2 2 2 1 1 1 1 1 1 0
5 5 6 5 5 5 5 4 4 4 4 4 3 2 2 2 3 3 3 3 3 2 2 2 2 2 2 2 3 2 2 2 2 2 2 2 1 2 2 3 2 1 1
6 5 5 4 4 5 5 5 4 3 3 3 3 3 3 3 3 3 3 3 3 3 3 3 2 2 3 3 3 3 2 2 2 2 2 2 1 1 1 3 3 3 3
6 5 5 4 3 2 3 3 4 3 3 2 2 2 2 3 3 3 3 3 3 3 3 4 3 3 3 3 3 3 2 2 3 3 3 2 2 2 1 1 2 3 3
5 4 4 4 3 3 3 4 3 3 2 2 2 2 3 3 3 3 4 3 3 3 3 3 4 4 3 4 3 3 1 2 3 3 3 3 3 4 2 1 2 3 4
4 3 3 4 4 2 3 4 3 2 2 3 3 3 3 3 3 4 4 3 3 3 3 3 4 4 4 4 4 4 2 2 2 2 2 3 3 4 3 2 2 3 4
3 4 4 4 2 2 4 4 2 2 3 2 2 2 2 2 3 2 2 3 3 2 2 3 3 3 4 4 5 5 3 3 2 2 2 2 4 4 3 3 3 5 4
4 3 4 2 1 2 3 2 2 3 2 1 1 2 2 2 1 2 2 2 2 2 3 2 3 2 3 3 4 5 5 3 3 3 2 3 4 5 4 3 4 5 2
3 2 2 2 1 1 2 1 2 2 1 1 1 2 2 2 2 2 2 2 2 2 3 3 3 3 2 2 5 5 5 5 3 3 4 5 5 4 3 5 5 2 1
2 2 2 1 1 1 0 1 2 1 1 1 2 2 2 2 2 1 1 2 2 3 3 3 3 2 2 2 2 2 2 3 2 2 3 3 3 2 2 3 2 1 1
1 2 1 1 1 1 1 1 1 1 1 2 2 2 2 2 2 1 2 3 3 4 4 4 3 3 3 5 6 4 3 2 2 1 0 1 1 1 1 1 2 2 1
2 1 1 0 1 1 1 2 2 1 1 1 2 2 2 2 1 1 2 3 3 3 4 5 5 4 5 5 5 5 4 3 3 2 1 1 1 2 2 2 2 2 2
Wind_Direction
173 157 155 152 144 143 140 145 140 151 141 134 135 120 124 140 274 244 200 173 173 167 147 177 167 149 165 230 255 258 313 297 317 19 340 328 308 262 221 199 191 204 203
161 161 155 154 155 153 153 151 151 149 150 158 155 145 143 158 177 234 47 168 151 156 148 155 173 164 152 359 329 140 238 288 28 120 55 345 338 333 284 228 206 207 197
172 173 166 161 158 161 164 161 161 155 156 146 117 101 70 32 14 353 347 306 132 140 131 138 138 142 154 186 234 197 183 244 294 157 150 159 247 307 320 282 245 215 203
171 171 166 163 168 173 169 164 163 158 155 143 134 138 145 171 226 234 241 302 98 132 126 112 116 124 147 186 254 194 196 161 277 307 221 186 182 185 306 319 302 263 230
175 174 173 171 169 170 171 171 165 164 162 155 155 150 157 182 206 206 70 20 21 76 96 109 110 97 91 73 328 352 347 164 194 230 254 287 310 175 181 275 303 314 274
171 171 171 160 160 167 171 170 166 175 173 167 165 164 167 168 149 150 150 244 358 11 17 83 99 108 106 318 275 330 4 329 271 223 181 174 182 218 185 228 262 278 283
168 165 165 166 168 171 175 172 171 181 181 176 176 176 174 166 169 175 172 167 188 281 278 132 147 215 276 326 14 32 5 357 351 314 282 238 220 198 186 195 250 265 281
160 164 170 167 169 171 172 170 173 178 176 177 183 178 169 170 175 173 164 176 196 224 237 193 162 176 48 57 66 43 359 34 10 351 347 319 297 219 189 186 187 284 313
163 167 169 164 165 167 175 175 173 176 175 173 168 172 183 183 179 175 172 197 207 211 157 104 141 82 67 57 75 61 22 39 26 4 7 11 341 355 328 171 165 171 223
162 167 169 166 169 174 175 168 164 175 180 174 172 172 181 174 165 154 173 184 207 163 100 91 89 79 70 62 64 54 23 46 4 1 12 356 335 350 356 21 96 178 181
168 169 170 171 166 162 164 165 164 158 158 163 155 149 154 148 128 128 141 140 134 124 124 133 127 122 106 99 86 53 36 59 5 359 19 356 351 0 349 0 35 65 153
161 162 163 160 158 163 165 163 162 165 171 164 154 162 161 156 156 165 165 137 146 163 164 154 140 156 148 136 123 159 240 179 243 335 6 342 356 359 346 0 351 318 206
161 162 160 160 161 163 163 161 163 167 162 149 150 160 168 169 180 188 172 154 163 179 183 164 160 175 182 175 182 191 202 201 206 207 213 288 346 336 322 350 349 319 326
164 157 158 161 161 156 153 157 161 162 158 151 153 166 185 191 197 196 185 179 173 179 199 191 185 191 196 197 200 199 195 214 229 219 209 225 220 259 285 326 322 321 344
147 153 150 148 141 136 140 150 155 159 157 156 169 191 201 199 194 192 192 191 186 197 199 199 201 202 201 212 205 210 201 213 243 254 238 227 225 256 271 299 288 319 304
144 146 138 136 139 144 149 153 162 170 154 159 175 180 189 207 201 200 198 196 204 210 202 207 205 212 228 224 205 194 199 209 219 251 263 253 272 297 317 318 313 250 231
141 140 142 146 157 164 156 155 164 162 153 166 179 181 189 204 207 208 200 212 215 212 220 227 218 224 248 236 221 206 194 216 226 229 237 256 269 267 304 312 329 320 301
136 142 149 151 142 136 138 146 142 139 145 159 181 203 201 205 209 207 216 222 218 217 223 230 220 219 245 232 223 224 210 232 242 234 225 225 252 260 253 278 317 308 299
144 144 152 147 137 135 143 131 136 140 144 171 200 206 197 204 213 217 224 224 217 230 233 229 215 217 242 225 219 208 211 249 266 258 232 218 235 256 245 228 290 304 304
114 124 122 114 117 127 131 128 146 149 178 208 220 216 203 205 220 224 229 225 219 230 235 234 223 219 228 222 215 195 188 237 266 279 256 236 238 254 240 217 233 271 278
101 109 107 105 120 123 118 129 149 202 226 230 225 223 224 226 226 226 234 234 228 233 237 238 237 229 226 224 217 206 194 213 233 248 265 272 265 267 265 244 230 246 260
84 90 103 106 112 107 113 134 209 236 234 214 219 239 246 249 239 223 247 243 223 229 242 243 254 251 238 219 224 223 218 210 205 230 241 258 271 273 272 262 258 263 264
94 87 114 119 84 78 120 155 261 262 224 235 256 259 255 252 240 217 233 239 222 227 240 231 237 257 256 241 236 229 222 222 213 235 250 260 267 276 273 268 267 258 225
109 96 97 100 350 325 299 227 264 270 213 242 262 267 271 281 285 266 222 219 228 235 240 231 235 244 253 251 235 228 226 233 239 260 270 275 271 280 291 297 290 259 231
88 94 106 161 261 298 308 307 319 342 291 267 270 279 275 256 254 266 250 234 233 221 216 218 212 212 233 241 226 202 209 210 211 196 2 359 339 321 321 312 301 290 275
119 112 123 207 277 340 336 326 335 342 318 301 293 285 277 270 251 256 307 312 272 274 245 229 214 222 227 230 220 214 217 218 192 149 186 240 253 249 257 271 283 284 264